Погода в Лехинче

Ирландия     52°55′54″N   9°20′25″W
темп.,
°C
ветер,
м/с
пор.,
м/с
влажн.,
%
обл.,
%
осадки,
мм/ч
давл.,
гПа
погр.,
м
7 августа, вс
вс701:00+12з36899 0.0 1030210
04:00+12з368988 0.0 1029174
07:00+13зюз35885 0.0 1028178
10:00+16з56779 0.0 1029772
13:00+17з55745 0.1 1028883
16:00+17з457221 0.0 1028693
19:00+16з45775 0.0 1028474
22:00+13зсз24905 0.0 1028108
8 августа, пн
пн801:00+12з22905 0.0 102890
04:00+12юз129076 0.0 102889
07:00+12ю22925 0.0 102880
10:00+15юз337697 0.0 1028469
13:00+17зюз336397 0.0 1029526
16:00+17з456121 0.0 1029540
19:00+16з3470100 0.0 1029363
22:00+13зсз228861 0.0 103027
9 августа, вт
вт901:00+12ююз118997 0.0 103012
04:00+12юз1190100 0.0 103018
07:00+12ю119054 0.0 103031
10:00+16зюз1272100 0.0 1030299
13:00+18з336491 0.0 1030516
16:00+18з446365 0.0 1030425
19:00+17з237199 0.0 1030284
22:00+13зсз118810 0.0 103011
10 августа, ср
ср1001:00+13зюз11885 0.0 102911
04:00+12юз11875 0.0 102811
07:00+13ю11864 0.0 102715
10:00+18зюз11645 0.0 1027305
13:00+19з32565 0.0 1027430
16:00+19зсз33545 0.0 1026372
19:00+18сз33615 0.0 1025215
22:00+14ссз11740 0.0 102611
11 августа, чт
чт1101:00+13ссз11720 0.0 102511
04:00+12в11690 0.0 102511
07:00+13всв11640 0.0 102413
10:00+19всв11510 0.0 1024189
13:00+22ссз22445 0.0 1024587
16:00+23с324328 0.0 1023696
19:00+21ссз33615 0.0 1023161
22:00+17ссв33675 0.0 102324